Terminal Aerodrome Forecast
Issued by NWS La Crosse, WI

Home | Current Version | Previous Version | Text Only | Print | Product List | Glossary On
Versions: 1 2 3 4 5 6 7 8 9 10 11 12 13 14 15 16 17 18 19 20 21 22 23 24 25 26 27 28 29 30 31 32 33 34 35 36 37 38 39
000
FTUS43 KARX 200929 AAA
TAFLSE
TAF AMD
KLSE 200929Z 2009/2106 17006KT P6SM -SN SCT025 OVC035
     FM201600 16005KT P6SM OVC018
     FM201800 16005KT P6SM OVC023=

USA.gov is the U.S. government's official web portal to all federal, state and local government web resources and services.